Regional Weather Roundup
Issued by NWS

Home | Current Version | Previous Version | Graphics & Text | Print | Product List | Glossary On
Versions: 1 2 3 4 5 6 7 8 9 10 11 12 13 14 15 16 17 18 19 20 21 22 23 24 25 26 27 28 29 30 31 32 33 34 35 36 37 38 39 40 41 42 43 44 45 46 47 48 49 50
000
ASUS43 KBIS 060820
RWRND

NORTH DAKOTA REGIONAL WEATHER ROUNDUP
NATIONAL WEATHER SERVICE BISMARCK ND
200 AM CST FRI MAR 06 2015

NOTE: "FAIR" INDICATES FEW OR NO CLOUDS BELOW 12,000 FEET WITH NO
SIGNIFICANT WEATHER AND/OR OBSTRUCTIONS TO VISIBILITY.


NDZ001>003-009>011-017-060900-
NORTHWEST NORTH DAKOTA

CITY           SKY/WX    TMP DP  RH WIND       PRES   REMARKS
WILLISTON      CLEAR     24  16  71 N5        30.04S WCI  18
MINOT          CLEAR     22  14  71 W17       30.00R WCI   8
MINOT AFB      CLEAR     19  16  88 NW15      29.99S WCI   5
$$

NDZ018>021-031>035-040>046-060900-
SOUTHWEST NORTH DAKOTA

CITY           SKY/WX    TMP DP  RH WIND       PRES   REMARKS
BISMARCK       CLEAR     20  12  71 NW7       30.03R WCI  11
DICKINSON      CLEAR     24  13  62 W9        30.01R WCI  14
GARRISON         N/A     19  13  77 NW12      30.01R WCI   7
HETTINGER ARPT CLOUDY    25  14  63 W9        30.05S WCI  15
$$

NDZ004>008-012>016-024-026-027-054-060900-
NORTHEAST NORTH DAKOTA

CITY           SKY/WX    TMP DP  RH WIND       PRES   REMARKS
GRAND FORKS    CLEAR     12   7  80 SW9       29.95F WCI   0
GRND FRKS AFB  CLEAR     18   9  69 NW6       29.95R WCI  10
DEVILS LAKE    CLEAR     16   9  73 W12       29.96R WCI   3
$$

NDZ022-023-025-028>030-036>039-047>053-060900-
SOUTHEAST NORTH DAKOTA

CITY           SKY/WX    TMP DP  RH WIND       PRES   REMARKS
FARGO          PTCLDY    16   7  67 S13       29.98F WCI   2
JAMESTOWN      CLEAR     20  10  65 W10       29.96R WCI   9
$$



USA.gov is the U.S. government's official web portal to all federal, state and local government web resources and services.